Regional Weather Roundup
Issued by NWS

Home | Current Version | Previous Version | Graphics & Text | Print | Product List | Glossary On
Versions: 1 2 3 4 5 6 7 8 9 10 11 12 13 14 15 16 17 18 19 20 21 22 23 24 25 26 27 28 29 30 31 32 33 34 35 36 37 38 39 40 41 42 43 44 45 46 47 48 49 50
000
ASUS43 KLOT 271409
RWRIL

ILLINOIS REGIONAL WEATHER ROUNDUP
NATIONAL WEATHER SERVICE CHICAGO/ROMEOVILLE IL
900 AM CDT THU JUL 27 2017

NOTE: "FAIR" INDICATES FEW OR NO CLOUDS BELOW 12,000 FEET WITH NO
SIGNIFICANT WEATHER AND/OR OBSTRUCTIONS TO VISIBILITY.

* THESE STATIONS ARE NOT UNDER NWS QUALITY CONTROL. THEY ALSO MAY NOT
  REPORT WEATHER SUCH AS PRECIPITATION OR FOG.

ILZ001-002-007-009-015-016-024-271500-
NORTHWEST ILLINOIS

CITY           SKY/WX    TMP DP  RH WIND       PRES   REMARKS
MOLINE         CLOUDY    74  69  85 NE9       29.97R
SAVANNA*       PTSUNNY   76  72  87 NE7       29.96S
$$

ILZ003-004-008-010-011-017-018-271500-
NORTH CENTRAL ILLINOIS

CITY           SKY/WX    TMP DP  RH WIND       PRES   REMARKS
ROCKFORD       PTSUNNY   78  70  76 E9        29.96S HX  80
FREEPORT*      CLOUDY    72  69  91 NE9       29.99R
ROCHELLE*      CLOUDY    73  71  95 NE9       29.96S
DE KALB*       CLOUDY    74  72  93 N8        29.96S
PERU*          CLOUDY    72  70  92 NE7       29.96R
$$

ILZ005-006-012>014-019>023-271500-
NORTHEAST ILLINOIS

CITY           SKY/WX    TMP DP  RH WIND       PRES   REMARKS
CHICAGO-OHARE  PTSUNNY   77  68  73 NE13      29.94R
CHICAGO-MIDWAY PTSUNNY   80  70  71 N9        29.93S HX  83
AURORA         MOSUNNY   78  71  79 NE8       29.95R HX  80
LANSING*       CLOUDY    75  70  84 NW7       29.94R HAZE
JOLIET*        CLOUDY    77  73  87 CALM      29.94S
WAUKEGAN       MOSUNNY   74  70  87 N9        29.95R
DUPAGE AIRPORT PTSUNNY   77  73  87 NE12      29.94R FOG
KANKAKEE*      CLOUDY    73  72  97 CALM      29.95S
WHEELING       MOSUNNY   76  72  87 NE9       29.96R
MORRIS*        CLOUDY    74  71  92 CALM      29.94R
ROMEOVILLE*    CLOUDY    76  69  79 CALM      29.94S
NORTHERLY ISL    N/A     75  69  81 N10         N/A
$$

LMZ740>746-271500-
SOUTHERN LAKE MICHIGAN

STATION/POSITION SKY/WX   TEMP    WIND        PRES    VSBY  WAVE
                          AIR SEA DIR/SP/G                  HT/PER
                          (F)     (DEG/KT/KT) (MB)    (MI)  (FT/S)
SOUTHERN BUOY              71 71   20/  8/ 10 1013.6          0
WILMETTE HARBOR            72 72  340/ 10/ 12   N/A           1/ 2
HARRISON CRIB              72     340/ 16/ 17   N/A
BURNHAM HARBOR             74                   N/A
CALUMET HARBOR             75     320/  5/  7 1013.0R
BURNS HARBOR               74      40/  4/  6 1013.9S
MICHIGAN CITY              75      CALM  /  1   N/A
MICHIGAN CITY 6N           75 76   80/  2/  2   N/A           0
ST. JOSEPH                 74 74   50/  6/  8 1012.9          0
$$

ILZ025>027-034>036-040-047-049-050-058-095>099-271500-
WEST-CENTRAL ILLINOIS

CITY           SKY/WX    TMP DP  RH WIND       PRES   REMARKS
QUINCY         LGT RAIN  75  74  96 NE8       29.94S FOG
GALESBURG*     CLOUDY    73  70  90 CALM      29.97S
MACOMB*        CLOUDY    74  73  98 N5        29.98R FOG
JACKSONVILLE*  DRIZZLE   73  72  96 SW7       29.94S
PITTSFIELD*    RAIN      75  74  97 SW7       29.96R
$$

ILZ028>032-037-038-041>044-048-051>054-059>061-271500-
CENTRAL ILLINOIS

CITY           SKY/WX    TMP DP  RH WIND       PRES   REMARKS
PONTIAC        CLOUDY    74  74  98 NW3       29.95S
BLOOMINGTON    CLOUDY    74  72  93 W3        29.96S
DECATUR        CLOUDY    75  72  90 SW8       29.95S
PEORIA         CLOUDY    75  74  96 NW3       29.95R
LACON*         CLOUDY    73  73  97 NW5       29.94S
LINCOLN*       CLOUDY    76  76  98 CALM      29.95R
SPRINGFIELD    LGT RAIN  76  76 100 W3        29.95S
TAYLORVILLE    LGT RAIN  73  72  98 W7        29.96R
$$

ILZ033-039-045-046-055>057-062-063-271500-
EAST-CENTRAL ILLINOIS

CITY           SKY/WX    TMP DP  RH WIND       PRES   REMARKS
CHAMPAIGN      LGT RAIN  74  72  93 SW7       29.96R
RANTOUL*       CLOUDY    78  75  92 W8        29.95S
MATTOON        LGT RAIN  72  72 100 W13G22    29.96R FOG
PARIS*         CLOUDY    74  73  96 W6        29.96S
$$

ILZ079-100>102-271500-
SOUTHWEST ILLINOIS

CITY           SKY/WX    TMP DP  RH WIND       PRES   REMARKS
ALTON          RAIN      73  73 100 CALM      29.98R
CAHOKIA*       LGT RAIN  78  75  90 CALM      29.97S HX  81
SPARTA*        DRIZZLE   75  74  98 CALM      29.99S
$$

ILZ064>066-069>071-074>076-080>082-084>086-088>090-092>094-271500-
SOUTH-CENTRAL ILLINOIS

CITY           SKY/WX    TMP DP  RH WIND       PRES   REMARKS
CARBONDALE     CLOUDY    80  77  90 CALM      29.97R HX  87
CAIRO*         PTSUNNY   81  76  87 SW7       29.98R HX  87
EFFINGHAM*     CLOUDY    75  75 100 W5        29.98S
MARION         DRIZZLE   81  81 100 W5        29.98S HX  91
MT. VERNON     LGT RAIN  74  74 100 CALM      29.98S
CENTRALIA*     RAIN      75  75 100 S3        29.97S
SALEM*         CLOUDY    76  74  93 S3        29.98R
METROPOLIS*    CLOUDY    81  76  84 W3        29.99R HX  87
$$

ILZ067-068-072-073-078-083-087-091-271500-
SOUTHEAST ILLINOIS

CITY           SKY/WX    TMP DP  RH WIND       PRES   REMARKS
LAWRENCEVILLE  CLOUDY    76  32  20 W7        29.97S
FLORA*         CLOUDY    76  74  93 W3        29.98R
FAIRFIELD*     LGT RAIN  74  74 100 CALM      29.96S
HARRISBURG*    CLOUDY    79  76  91 SW5       29.97S HX  84
ROBINSON*      CLOUDY    74  73  96 CALM      29.96S
CARMI*         PTSUNNY   75  74  99 CALM      29.97R
$$

ABBREVIATIONS USED IN REMARKS
   TC - TEMPERATURE IN CELSIUS
  WCI - WIND CHILL INDEX
   HX - HEAT INDEX
  VSB - VISIBILITY
$$





USA.gov is the U.S. government's official web portal to all federal, state and local government web resources and services.